ARIANE 5 R/B

Last updated on Thu Oct 30 2025 00:02:15 GMT+0000 (Coordinated Universal Time)

1 28499U 04049H 25302.44931557 .00001329 00000+0 15338-3 0 9996 2 28499 98.2508 101.1542 0085809 56.8921 304.0492 14.84878531126315
UTC large
Height (km)
Speed (km/s)
/
Latitude / Longitude
Inclination (degrees)
Orbital Period (minutes)
Azimuth
Elevation
Range (km)
Doppler Factor

Next 0 passes for location: London (51.5072 / 0.1276)

Sorry there are no passes over London.